Regional Weather Roundup
Issued by NWS

Home | Current Version | Previous Version | Graphics & Text | Print | Product List | Glossary On
Versions: 1 2 3 4 5 6 7 8 9 10 11 12 13 14 15 16 17 18 19 20 21 22 23 24 25 26 27 28 29 30 31 32 33 34 35 36 37 38 39 40 41 42 43 44 45 46 47 48 49 50
000
ASUS43 KBIS 260320
RWRND

NORTH DAKOTA REGIONAL WEATHER ROUNDUP
NATIONAL WEATHER SERVICE BISMARCK ND
900 PM CST THU DEC 25 2014

NOTE: "FAIR" INDICATES FEW OR NO CLOUDS BELOW 12,000 FEET WITH NO
SIGNIFICANT WEATHER AND/OR OBSTRUCTIONS TO VISIBILITY.


NDZ001>003-009>011-017-260400-
NORTHWEST NORTH DAKOTA

CITY           SKY/WX    TMP DP  RH WIND       PRES   REMARKS
WILLISTON      CLOUDY    20  13  74 N9        30.05R WCI   9
MINOT          CLOUDY    22  16  78 NW14      30.00R WCI   9
MINOT AFB      CLOUDY    21  20  96 NW15      30.00R WCI   8
$$

NDZ018>021-031>035-040>046-260400-
SOUTHWEST NORTH DAKOTA

CITY           SKY/WX    TMP DP  RH WIND       PRES   REMARKS
BISMARCK       CLOUDY    26  20  77 NW9       30.00R WCI  17
DICKINSON      CLOUDY    22  16  78 NW12      29.97R WCI  10
GARRISON         N/A     24  19  81 NW15      29.98R WCI  11
HETTINGER ARPT CLOUDY    22  17  81 NW15      29.98R WCI   9
$$

NDZ004>008-012>016-024-026-027-054-260400-
NORTHEAST NORTH DAKOTA

CITY           SKY/WX    TMP DP  RH WIND       PRES   REMARKS
GRAND FORKS    CLOUDY    25  21  85 N14       29.97R WCI  13
GRND FRKS AFB  CLOUDY    26  25  96 N10       29.98R WCI  15
DEVILS LAKE    CLOUDY    25  19  80 N8        29.96R WCI  16
$$

NDZ022-023-025-028>030-036>039-047>053-260400-
SOUTHEAST NORTH DAKOTA

CITY           SKY/WX    TMP DP  RH WIND       PRES   REMARKS
FARGO          CLOUDY    28  22  78 N13       29.95R WCI  17
JAMESTOWN      CLOUDY    26  22  84 N8        29.95R WCI  18
$$




USA.gov is the U.S. government's official web portal to all federal, state and local government web resources and services.